sat.trackr.live / text

‹ back to catalog

STARLINK-35447

NORAD 66589 · 2025-270B

PAYLOAD ACTIVE UNKNOWN

§ Identity

Operator
Country
US
Launch date
2025-11-22
Launch site
AFETR
Launch vehicle
Mass (kg)
RCS (m²)

Purposes: comms

External: N2YO · Heavens-Above · Gunter

§ Orbital elements

Epoch: 2026-09-20T09:29:06.020448Z

Period
94.27 min
Inclination
43.0006°
Eccentricity
0.0001386
Mean motion
15.27567820 rev/d
Perigee alt
482.1 km
Apogee alt
484.0 km
Semi-major
6,861.2 km
B*
5.2376e-4
RAAN
36.5830°
Arg perigee
271.0135°
Mean anomaly
89.0558°
Rev number
4,759

§ Raw data

STARLINK-354471 66589U 25270B   26263.39520857  .00014173  00000+0  52376-3 0  99992 66589  43.0006  36.5830 0001386 271.0135  89.0558 15.27567820 47594

JSON: /api/v1/satellites/66589 · /tle

For live sub-satellite position, see the globe view (requires WebGL).

§ Visibility from observer

Set your observer location to see the next 7 days of passes ≥ 10°. The values pass through the URL so the page stays shareable.

No JS? Fill the form by hand. The geolocation button needs JavaScript.